owner,sensor,date,latitude,longitude,vertical_datum,mass_concentration_of_oxygen_in_sea_water,qcFlag 
DISL,ioos:station:DISL:KATA:1,2017-04-01T00:00:00Z,30.2583,-88.2131,4.046,8.26,1111122 
DISL,ioos:station:DISL:KATA:1,2017-04-01T00:30:00Z,30.2583,-88.2131,4.007,8.38,1111122 
DISL,ioos:station:DISL:KATA:1,2017-04-01T01:00:00Z,30.2583,-88.2131,3.972,8.56,1111122 
DISL,ioos:station:DISL:KATA:1,2017-04-01T01:30:00Z,30.2583,-88.2131,3.953,8.51,1111122 
DISL,ioos:station:DISL:KATA:1,2017-04-01T02:00:00Z,30.2583,-88.2131,3.931,8.41,1111122 
DISL,ioos:station:DISL:KATA:1,2017-04-01T02:30:00Z,30.2583,-88.2131,3.909,8.35,1111122 
DISL,ioos:station:DISL:KATA:1,2017-04-01T03:00:00Z,30.2583,-88.2131,3.897,8.35,1111122 
DISL,ioos:station:DISL:KATA:1,2017-04-01T03:30:00Z,30.2583,-88.2131,3.889,8.25,1111122 
DISL,ioos:station:DISL:KATA:1,2017-04-01T04:00:00Z,30.2583,-88.2131,3.883,8.33,1111122 
DISL,ioos:station:DISL:KATA:1,2017-04-01T04:30:00Z,30.2583,-88.2131,3.878,8.45,1111122 
DISL,ioos:station:DISL:KATA:1,2017-04-01T05:00:00Z,30.2583,-88.2131,3.875,8.44,1111122 
DISL,ioos:station:DISL:KATA:1,2017-04-01T05:30:00Z,30.2583,-88.2131,3.865,8.21,1111122 
DISL,ioos:station:DISL:KATA:1,2017-04-01T06:00:00Z,30.2583,-88.2131,3.865,7.85,1111122 
DISL,ioos:station:DISL:KATA:1,2017-04-01T06:30:00Z,30.2583,-88.2131,3.869,6.7,1111122 
DISL,ioos:station:DISL:KATA:1,2017-04-01T07:00:00Z,30.2583,-88.2131,3.882,3.92,1111122 
DISL,ioos:station:DISL:KATA:1,2017-04-01T07:30:00Z,30.2583,-88.2131,3.906,4.79,1111122 
DISL,ioos:station:DISL:KATA:1,2017-04-01T08:00:00Z,30.2583,-88.2131,3.936,4.54,1111122 
DISL,ioos:station:DISL:KATA:1,2017-04-01T08:30:00Z,30.2583,-88.2131,3.96,4.27,1111122 
DISL,ioos:station:DISL:KATA:1,2017-04-01T09:00:00Z,30.2583,-88.2131,3.995,4.92,1111122 
DISL,ioos:station:DISL:KATA:1,2017-04-01T09:30:00Z,30.2583,-88.2131,4.026,6.09,1111122 
DISL,ioos:station:DISL:KATA:1,2017-04-01T10:00:00Z,30.2583,-88.2131,4.051,6.0,1111122 
DISL,ioos:station:DISL:KATA:1,2017-04-01T10:30:00Z,30.2583,-88.2131,4.069,6.32,1111122 
DISL,ioos:station:DISL:KATA:1,2017-04-01T11:00:00Z,30.2583,-88.2131,4.079,6.36,1111122 
DISL,ioos:station:DISL:KATA:1,2017-04-01T11:30:00Z,30.2583,-88.2131,4.089,5.78,1111122 
DISL,ioos:station:DISL:KATA:1,2017-04-01T12:00:00Z,30.2583,-88.2131,4.087,4.97,1111122 
DISL,ioos:station:DISL:KATA:1,2017-04-01T12:30:00Z,30.2583,-88.2131,4.096,5.12,1111122 
DISL,ioos:station:DISL:KATA:1,2017-04-01T13:00:00Z,30.2583,-88.2131,4.109,5.4,1111122 
DISL,ioos:station:DISL:KATA:1,2017-04-01T13:30:00Z,30.2583,-88.2131,4.132,5.71,1111122 
DISL,ioos:station:DISL:KATA:1,2017-04-01T14:00:00Z,30.2583,-88.2131,4.165,6.56,1111122 
DISL,ioos:station:DISL:KATA:1,2017-04-01T14:30:00Z,30.2583,-88.2131,4.188,6.5,1111122 
DISL,ioos:station:DISL:KATA:1,2017-04-01T15:00:00Z,30.2583,-88.2131,4.23,6.37,1111122 
DISL,ioos:station:DISL:KATA:1,2017-04-01T15:30:00Z,30.2583,-88.2131,4.246,6.54,1111122 
DISL,ioos:station:DISL:KATA:1,2017-04-01T16:00:00Z,30.2583,-88.2131,4.269,6.8,1111122 
DISL,ioos:station:DISL:KATA:1,2017-04-01T16:30:00Z,30.2583,-88.2131,4.285,6.83,1111122 
DISL,ioos:station:DISL:KATA:1,2017-04-01T17:00:00Z,30.2583,-88.2131,4.281,7.68,1111122 
DISL,ioos:station:DISL:KATA:1,2017-04-01T17:30:00Z,30.2583,-88.2131,4.288,8.16,1111122 
DISL,ioos:station:DISL:KATA:1,2017-04-01T18:00:00Z,30.2583,-88.2131,4.285,8.38,1111122 
DISL,ioos:station:DISL:KATA:1,2017-04-01T18:30:00Z,30.2583,-88.2131,4.273,8.56,1111122 
DISL,ioos:station:DISL:KATA:1,2017-04-01T19:00:00Z,30.2583,-88.2131,4.271,8.63,1111122 
DISL,ioos:station:DISL:KATA:1,2017-04-01T19:30:00Z,30.2583,-88.2131,4.253,7.79,1111122 
DISL,ioos:station:DISL:KATA:1,2017-04-01T20:00:00Z,30.2583,-88.2131,4.238,6.52,1111122 
DISL,ioos:station:DISL:KATA:1,2017-04-01T20:30:00Z,30.2583,-88.2131,4.219,6.35,1111122 
DISL,ioos:station:DISL:KATA:1,2017-04-01T21:00:00Z,30.2583,-88.2131,4.203,5.87,1111122 
DISL,ioos:station:DISL:KATA:1,2017-04-01T21:30:00Z,30.2583,-88.2131,4.18,6.08,1111122 
DISL,ioos:station:DISL:KATA:1,2017-04-01T22:00:00Z,30.2583,-88.2131,4.158,6.68,1111122 
DISL,ioos:station:DISL:KATA:1,2017-04-01T22:30:00Z,30.2583,-88.2131,4.139,7.39,1111122 
DISL,ioos:station:DISL:KATA:1,2017-04-01T23:00:00Z,30.2583,-88.2131,4.107,8.07,1111122 
DISL,ioos:station:DISL:KATA:1,2017-04-01T23:30:00Z,30.2583,-88.2131,4.072,8.36,1111122 
DISL,ioos:station:DISL:KATA:1,2017-04-02T00:00:00Z,30.2583,-88.2131,4.041,8.43,1111122 
DISL,ioos:station:DISL:KATA:1,2017-04-02T00:30:00Z,30.2583,-88.2131,4.01,8.61,1111122 
DISL,ioos:station:DISL:KATA:1,2017-04-02T01:00:00Z,30.2583,-88.2131,3.966,8.83,1111122 
DISL,ioos:station:DISL:KATA:1,2017-04-02T01:30:00Z,30.2583,-88.2131,3.923,8.89,1111122 
DISL,ioos:station:DISL:KATA:1,2017-04-02T02:00:00Z,30.2583,-88.2131,3.888,9.23,1111122 
DISL,ioos:station:DISL:KATA:1,2017-04-02T02:30:00Z,30.2583,-88.2131,3.85,9.51,1111122 
DISL,ioos:station:DISL:KATA:1,2017-04-02T03:00:00Z,30.2583,-88.2131,3.823,9.55,1111122 
DISL,ioos:station:DISL:KATA:1,2017-04-02T03:30:00Z,30.2583,-88.2131,3.801,9.59,1111122 
DISL,ioos:station:DISL:KATA:1,2017-04-02T04:00:00Z,30.2583,-88.2131,3.782,9.53,1111122 
DISL,ioos:station:DISL:KATA:1,2017-04-02T04:30:00Z,30.2583,-88.2131,3.771,6.7,1111122 
DISL,ioos:station:DISL:KATA:1,2017-04-02T05:00:00Z,30.2583,-88.2131,3.765,4.33,1111122 
DISL,ioos:station:DISL:KATA:1,2017-04-02T05:30:00Z,30.2583,-88.2131,3.77,5.13,1111122 
DISL,ioos:station:DISL:KATA:1,2017-04-02T06:00:00Z,30.2583,-88.2131,3.775,3.72,1111122 
DISL,ioos:station:DISL:KATA:1,2017-04-02T06:30:00Z,30.2583,-88.2131,3.785,4.55,1111122 
DISL,ioos:station:DISL:KATA:1,2017-04-02T07:00:00Z,30.2583,-88.2131,3.786,6.41,1111122 
DISL,ioos:station:DISL:KATA:1,2017-04-02T07:30:00Z,30.2583,-88.2131,3.796,6.68,1111122 
DISL,ioos:station:DISL:KATA:1,2017-04-02T08:00:00Z,30.2583,-88.2131,3.809,7.26,1111122 
DISL,ioos:station:DISL:KATA:1,2017-04-02T08:30:00Z,30.2583,-88.2131,3.814,7.19,1111122 
DISL,ioos:station:DISL:KATA:1,2017-04-02T09:00:00Z,30.2583,-88.2131,3.835,6.49,1111122 
DISL,ioos:station:DISL:KATA:1,2017-04-02T09:30:00Z,30.2583,-88.2131,3.871,5.51,1111122 
DISL,ioos:station:DISL:KATA:1,2017-04-02T10:00:00Z,30.2583,-88.2131,3.888,5.76,1111122 
DISL,ioos:station:DISL:KATA:1,2017-04-02T10:30:00Z,30.2583,-88.2131,3.91,5.98,1111122 
DISL,ioos:station:DISL:KATA:1,2017-04-02T11:00:00Z,30.2583,-88.2131,3.93,6.54,1111122 
DISL,ioos:station:DISL:KATA:1,2017-04-02T11:30:00Z,30.2583,-88.2131,3.95,5.91,1111122 
DISL,ioos:station:DISL:KATA:1,2017-04-02T12:00:00Z,30.2583,-88.2131,3.978,6.08,1111122 
DISL,ioos:station:DISL:KATA:1,2017-04-02T12:30:00Z,30.2583,-88.2131,4.023,6.1,1111122 
DISL,ioos:station:DISL:KATA:1,2017-04-02T13:00:00Z,30.2583,-88.2131,4.065,6.32,1111122 
DISL,ioos:station:DISL:KATA:1,2017-04-02T13:30:00Z,30.2583,-88.2131,4.102,6.59,1111122 
DISL,ioos:station:DISL:KATA:1,2017-04-02T14:00:00Z,30.2583,-88.2131,4.131,6.66,1111122 
DISL,ioos:station:DISL:KATA:1,2017-04-02T14:30:00Z,30.2583,-88.2131,4.161,6.65,1111122 
DISL,ioos:station:DISL:KATA:1,2017-04-02T15:00:00Z,30.2583,-88.2131,4.19,6.38,1111122 
DISL,ioos:station:DISL:KATA:1,2017-04-02T15:30:00Z,30.2583,-88.2131,4.215,6.22,1111122 
DISL,ioos:station:DISL:KATA:1,2017-04-02T16:00:00Z,30.2583,-88.2131,4.212,6.03,1111122 
DISL,ioos:station:DISL:KATA:1,2017-04-02T16:30:00Z,30.2583,-88.2131,4.214,5.97,1111122 
DISL,ioos:station:DISL:KATA:1,2017-04-02T17:00:00Z,30.2583,-88.2131,4.217,6.38,1111122 
DISL,ioos:station:DISL:KATA:1,2017-04-02T17:30:00Z,30.2583,-88.2131,4.229,6.98,1111122 
DISL,ioos:station:DISL:KATA:1,2017-04-02T18:00:00Z,30.2583,-88.2131,4.224,7.24,1111122 
DISL,ioos:station:DISL:KATA:1,2017-04-02T18:30:00Z,30.2583,-88.2131,4.259,7.3,1111122 
DISL,ioos:station:DISL:KATA:1,2017-04-02T19:00:00Z,30.2583,-88.2131,4.286,7.29,1111122 
DISL,ioos:station:DISL:KATA:1,2017-04-02T19:30:00Z,30.2583,-88.2131,4.311,7.29,1111122 
DISL,ioos:station:DISL:KATA:1,2017-04-02T20:00:00Z,30.2583,-88.2131,4.329,7.21,1111122 
DISL,ioos:station:DISL:KATA:1,2017-04-02T20:30:00Z,30.2583,-88.2131,4.308,7.32,1111122 
DISL,ioos:station:DISL:KATA:1,2017-04-02T21:00:00Z,30.2583,-88.2131,4.292,6.97,1111122 
DISL,ioos:station:DISL:KATA:1,2017-04-02T21:30:00Z,30.2583,-88.2131,4.262,6.79,1111122 
DISL,ioos:station:DISL:KATA:1,2017-04-02T22:00:00Z,30.2583,-88.2131,4.246,6.86,1111122 
DISL,ioos:station:DISL:KATA:1,2017-04-02T22:30:00Z,30.2583,-88.2131,4.219,5.91,1111122 
DISL,ioos:station:DISL:KATA:1,2017-04-02T23:00:00Z,30.2583,-88.2131,4.201,8.43,1111122 
DISL,ioos:station:DISL:KATA:1,2017-04-02T23:30:00Z,30.2583,-88.2131,4.191,8.51,1111122 
DISL,ioos:station:DISL:KATA:1,2017-04-03T00:00:00Z,30.2583,-88.2131,4.166,8.37,1111122 
DISL,ioos:station:DISL:KATA:1,2017-04-03T00:30:00Z,30.2583,-88.2131,4.139,8.33,1111122 
DISL,ioos:station:DISL:KATA:1,2017-04-03T01:00:00Z,30.2583,-88.2131,4.105,8.09,1111122 
DISL,ioos:station:DISL:KATA:1,2017-04-03T01:30:00Z,30.2583,-88.2131,4.069,7.67,1111122 
DISL,ioos:station:DISL:KATA:1,2017-04-03T02:00:00Z,30.2583,-88.2131,4.054,7.37,1111122 
DISL,ioos:station:DISL:KATA:1,2017-04-03T02:30:00Z,30.2583,-88.2131,4.027,7.28,1111122 
DISL,ioos:station:DISL:KATA:1,2017-04-03T03:00:00Z,30.2583,-88.2131,3.993,7.85,1111122 
DISL,ioos:station:DISL:KATA:1,2017-04-03T03:30:00Z,30.2583,-88.2131,3.961,7.45,1111122 
DISL,ioos:station:DISL:KATA:1,2017-04-03T04:00:00Z,30.2583,-88.2131,3.948,6.71,1111122 
DISL,ioos:station:DISL:KATA:1,2017-04-03T04:30:00Z,30.2583,-88.2131,3.952,6.14,1111122 
DISL,ioos:station:DISL:KATA:1,2017-04-03T05:00:00Z,30.2583,-88.2131,3.954,6.43,1111122 
DISL,ioos:station:DISL:KATA:1,2017-04-03T05:30:00Z,30.2583,-88.2131,3.943,7.69,1111122 
DISL,ioos:station:DISL:KATA:1,2017-04-03T06:00:00Z,30.2583,-88.2131,3.948,7.04,1111122 
DISL,ioos:station:DISL:KATA:1,2017-04-03T06:30:00Z,30.2583,-88.2131,3.949,7.52,1111122 
DISL,ioos:station:DISL:KATA:1,2017-04-03T07:00:00Z,30.2583,-88.2131,3.987,5.52,1111122 
DISL,ioos:station:DISL:KATA:1,2017-04-03T07:30:00Z,30.2583,-88.2131,4.023,7.23,1111122 
DISL,ioos:station:DISL:KATA:1,2017-04-03T08:00:00Z,30.2583,-88.2131,4.041,7.24,1111122 
DISL,ioos:station:DISL:KATA:1,2017-04-03T08:30:00Z,30.2583,-88.2131,4.05,7.24,1111122 
DISL,ioos:station:DISL:KATA:1,2017-04-03T09:00:00Z,30.2583,-88.2131,4.039,7.31,1111122 
DISL,ioos:station:DISL:KATA:1,2017-04-03T09:30:00Z,30.2583,-88.2131,4.046,7.24,1111122 
DISL,ioos:station:DISL:KATA:1,2017-04-03T10:00:00Z,30.2583,-88.2131,4.07,7.61,1111122 
DISL,ioos:station:DISL:KATA:1,2017-04-03T10:30:00Z,30.2583,-88.2131,4.092,7.38,1111122 
DISL,ioos:station:DISL:KATA:1,2017-04-03T11:00:00Z,30.2583,-88.2131,4.148,7.72,1111122 
DISL,ioos:station:DISL:KATA:1,2017-04-03T11:30:00Z,30.2583,-88.2131,4.192,7.75,1111122 
DISL,ioos:station:DISL:KATA:1,2017-04-03T12:00:00Z,30.2583,-88.2131,4.233,7.86,1111122 
DISL,ioos:station:DISL:KATA:1,2017-04-03T12:30:00Z,30.2583,-88.2131,4.258,7.69,1111122 
DISL,ioos:station:DISL:KATA:1,2017-04-03T13:00:00Z,30.2583,-88.2131,4.297,7.83,1111122 
DISL,ioos:station:DISL:KATA:1,2017-04-03T13:30:00Z,30.2583,-88.2131,4.313,7.82,1111122 
DISL,ioos:station:DISL:KATA:1,2017-04-03T14:00:00Z,30.2583,-88.2131,4.426,7.99,1111122 
DISL,ioos:station:DISL:KATA:1,2017-04-03T14:30:00Z,30.2583,-88.2131,4.347,7.91,1111122 
DISL,ioos:station:DISL:KATA:1,2017-04-03T15:00:00Z,30.2583,-88.2131,4.369,8.32,1111122 
DISL,ioos:station:DISL:KATA:1,2017-04-03T15:30:00Z,30.2583,-88.2131,4.311,8.21,1111122 
DISL,ioos:station:DISL:KATA:1,2017-04-03T16:00:00Z,30.2583,-88.2131,4.136,8.16,1111122 
DISL,ioos:station:DISL:KATA:1,2017-04-03T16:30:00Z,30.2583,-88.2131,4.075,8.25,1111122 
DISL,ioos:station:DISL:KATA:1,2017-04-03T17:00:00Z,30.2583,-88.2131,4.078,8.29,1111122 
DISL,ioos:station:DISL:KATA:1,2017-04-03T17:30:00Z,30.2583,-88.2131,4.043,8.14,1111122 
DISL,ioos:station:DISL:KATA:1,2017-04-03T18:00:00Z,30.2583,-88.2131,4.095,7.95,1111122 
DISL,ioos:station:DISL:KATA:1,2017-04-03T18:30:00Z,30.2583,-88.2131,4.14,7.58,1111122 
DISL,ioos:station:DISL:KATA:1,2017-04-03T19:00:00Z,30.2583,-88.2131,4.17,7.78,1111122 
DISL,ioos:station:DISL:KATA:1,2017-04-03T19:30:00Z,30.2583,-88.2131,4.245,7.74,1111122 
DISL,ioos:station:DISL:KATA:1,2017-04-03T20:00:00Z,30.2583,-88.2131,4.321,8.05,1111122 
DISL,ioos:station:DISL:KATA:1,2017-04-03T20:30:00Z,30.2583,-88.2131,4.38,8.31,1111122 
DISL,ioos:station:DISL:KATA:1,2017-04-03T21:00:00Z,30.2583,-88.2131,4.407,8.57,1111122 
DISL,ioos:station:DISL:KATA:1,2017-04-03T21:30:00Z,30.2583,-88.2131,4.424,8.45,1111122 
DISL,ioos:station:DISL:KATA:1,2017-04-03T22:00:00Z,30.2583,-88.2131,4.389,8.09,1111122 
DISL,ioos:station:DISL:KATA:1,2017-04-03T22:30:00Z,30.2583,-88.2131,4.336,8.11,1111122 
DISL,ioos:station:DISL:KATA:1,2017-04-03T23:00:00Z,30.2583,-88.2131,4.283,8.17,1111122 
DISL,ioos:station:DISL:KATA:1,2017-04-03T23:30:00Z,30.2583,-88.2131,4.268,8.25,1111122 
DISL,ioos:station:DISL:KATA:1,2017-04-04T00:00:00Z,30.2583,-88.2131,4.263,8.08,1111122 
DISL,ioos:station:DISL:KATA:1,2017-04-04T00:30:00Z,30.2583,-88.2131,4.298,7.83,1111122 
DISL,ioos:station:DISL:KATA:1,2017-04-04T01:00:00Z,30.2583,-88.2131,4.283,7.7,1111122 
DISL,ioos:station:DISL:KATA:1,2017-04-04T01:30:00Z,30.2583,-88.2131,4.267,7.7,1111122 
DISL,ioos:station:DISL:KATA:1,2017-04-04T02:00:00Z,30.2583,-88.2131,4.225,8.05,1111122 
DISL,ioos:station:DISL:KATA:1,2017-04-04T02:30:00Z,30.2583,-88.2131,4.176,8.21,1111122 
DISL,ioos:station:DISL:KATA:1,2017-04-04T03:00:00Z,30.2583,-88.2131,4.12,8.13,1111122 
DISL,ioos:station:DISL:KATA:1,2017-04-04T03:30:00Z,30.2583,-88.2131,4.075,8.16,1111122 
DISL,ioos:station:DISL:KATA:1,2017-04-04T04:00:00Z,30.2583,-88.2131,4.064,8.32,1111122 
DISL,ioos:station:DISL:KATA:1,2017-04-04T04:30:00Z,30.2583,-88.2131,4.034,8.21,1111122 
DISL,ioos:station:DISL:KATA:1,2017-04-04T05:00:00Z,30.2583,-88.2131,4.013,8.21,1111122 
DISL,ioos:station:DISL:KATA:1,2017-04-04T05:30:00Z,30.2583,-88.2131,3.99,8.08,1111122 
DISL,ioos:station:DISL:KATA:1,2017-04-04T06:00:00Z,30.2583,-88.2131,3.962,7.96,1111122 
DISL,ioos:station:DISL:KATA:1,2017-04-04T06:30:00Z,30.2583,-88.2131,3.94,7.75,1111122 
DISL,ioos:station:DISL:KATA:1,2017-04-04T07:00:00Z,30.2583,-88.2131,3.928,6.34,1111122 
DISL,ioos:station:DISL:KATA:1,2017-04-04T07:30:00Z,30.2583,-88.2131,3.937,5.65,1111122 
DISL,ioos:station:DISL:KATA:1,2017-04-04T08:00:00Z,30.2583,-88.2131,3.95,6.07,1111122 
DISL,ioos:station:DISL:KATA:1,2017-04-04T08:30:00Z,30.2583,-88.2131,3.959,6.2,1111122 
DISL,ioos:station:DISL:KATA:1,2017-04-04T09:00:00Z,30.2583,-88.2131,3.965,4.98,1111122 
DISL,ioos:station:DISL:KATA:1,2017-04-04T09:30:00Z,30.2583,-88.2131,3.961,4.42,1111122 
DISL,ioos:station:DISL:KATA:1,2017-04-04T10:00:00Z,30.2583,-88.2131,3.959,4.59,1111122 
DISL,ioos:station:DISL:KATA:1,2017-04-04T10:30:00Z,30.2583,-88.2131,3.955,4.3,1111122 
DISL,ioos:station:DISL:KATA:1,2017-04-04T11:00:00Z,30.2583,-88.2131,3.966,4.81,1111122 
DISL,ioos:station:DISL:KATA:1,2017-04-04T11:30:00Z,30.2583,-88.2131,3.985,5.67,1111122 
DISL,ioos:station:DISL:KATA:1,2017-04-04T12:00:00Z,30.2583,-88.2131,4.011,6.47,1111122 
DISL,ioos:station:DISL:KATA:1,2017-04-04T12:30:00Z,30.2583,-88.2131,4.036,6.5,1111122 
DISL,ioos:station:DISL:KATA:1,2017-04-04T13:00:00Z,30.2583,-88.2131,4.072,6.69,1111122 
DISL,ioos:station:DISL:KATA:1,2017-04-04T13:30:00Z,30.2583,-88.2131,4.089,6.77,1111122 
DISL,ioos:station:DISL:KATA:1,2017-04-04T14:00:00Z,30.2583,-88.2131,4.12,6.58,1111122 
DISL,ioos:station:DISL:KATA:1,2017-04-04T14:30:00Z,30.2583,-88.2131,4.153,6.65,1111122 
DISL,ioos:station:DISL:KATA:1,2017-04-04T15:00:00Z,30.2583,-88.2131,4.174,6.63,1111122 
DISL,ioos:station:DISL:KATA:1,2017-04-04T15:30:00Z,30.2583,-88.2131,4.203,6.82,1111122 
DISL,ioos:station:DISL:KATA:1,2017-04-04T16:00:00Z,30.2583,-88.2131,4.219,6.83,1111122 
DISL,ioos:station:DISL:KATA:1,2017-04-04T16:30:00Z,30.2583,-88.2131,4.228,6.6,1111122 
DISL,ioos:station:DISL:KATA:1,2017-04-04T17:00:00Z,30.2583,-88.2131,4.233,6.75,1111122 
DISL,ioos:station:DISL:KATA:1,2017-04-04T17:30:00Z,30.2583,-88.2131,4.237,6.84,1111122 
DISL,ioos:station:DISL:KATA:1,2017-04-04T18:00:00Z,30.2583,-88.2131,4.246,7.26,1111122 
DISL,ioos:station:DISL:KATA:1,2017-04-04T18:30:00Z,30.2583,-88.2131,4.268,7.33,1111122 
DISL,ioos:station:DISL:KATA:1,2017-04-04T19:00:00Z,30.2583,-88.2131,4.284,7.2,1111122 
DISL,ioos:station:DISL:KATA:1,2017-04-04T19:30:00Z,30.2583,-88.2131,4.305,7.35,1111122 
DISL,ioos:station:DISL:KATA:1,2017-04-04T20:00:00Z,30.2583,-88.2131,4.325,7.42,1111122 
DISL,ioos:station:DISL:KATA:1,2017-04-04T20:30:00Z,30.2583,-88.2131,4.339,7.48,1111122 
DISL,ioos:station:DISL:KATA:1,2017-04-04T21:00:00Z,30.2583,-88.2131,4.333,7.76,1111122 
DISL,ioos:station:DISL:KATA:1,2017-04-04T21:30:00Z,30.2583,-88.2131,4.326,7.79,1111122 
DISL,ioos:station:DISL:KATA:1,2017-04-04T22:00:00Z,30.2583,-88.2131,4.315,7.62,1111122 
DISL,ioos:station:DISL:KATA:1,2017-04-04T22:30:00Z,30.2583,-88.2131,4.314,7.24,1111122 
DISL,ioos:station:DISL:KATA:1,2017-04-04T23:00:00Z,30.2583,-88.2131,4.321,7.05,1111122 
DISL,ioos:station:DISL:KATA:1,2017-04-04T23:30:00Z,30.2583,-88.2131,4.307,6.37,1111122 
DISL,ioos:station:DISL:KATA:1,2017-04-05T00:00:00Z,30.2583,-88.2131,4.302,7.24,1111122 
DISL,ioos:station:DISL:KATA:1,2017-04-05T00:30:00Z,30.2583,-88.2131,4.287,6.54,1111122 
DISL,ioos:station:DISL:KATA:1,2017-04-05T01:00:00Z,30.2583,-88.2131,4.265,7.1,1111122 
DISL,ioos:station:DISL:KATA:1,2017-04-05T01:30:00Z,30.2583,-88.2131,4.245,7.14,1111122 
DISL,ioos:station:DISL:KATA:1,2017-04-05T02:00:00Z,30.2583,-88.2131,4.222,7.37,1111122 
DISL,ioos:station:DISL:KATA:1,2017-04-05T02:30:00Z,30.2583,-88.2131,4.192,7.29,1111122 
DISL,ioos:station:DISL:KATA:1,2017-04-05T03:00:00Z,30.2583,-88.2131,4.178,6.77,1111122 
DISL,ioos:station:DISL:KATA:1,2017-04-05T03:30:00Z,30.2583,-88.2131,4.139,7.84,1111122 
DISL,ioos:station:DISL:KATA:1,2017-04-05T04:00:00Z,30.2583,-88.2131,4.116,8.14,1111122 
DISL,ioos:station:DISL:KATA:1,2017-04-05T04:30:00Z,30.2583,-88.2131,4.092,7.62,1111122 
DISL,ioos:station:DISL:KATA:1,2017-04-05T05:00:00Z,30.2583,-88.2131,4.06,8.02,1111122 
DISL,ioos:station:DISL:KATA:1,2017-04-05T05:30:00Z,30.2583,-88.2131,4.039,7.69,1111122 
DISL,ioos:station:DISL:KATA:1,2017-04-05T06:00:00Z,30.2583,-88.2131,4.012,8.02,1111122 
DISL,ioos:station:DISL:KATA:1,2017-04-05T06:30:00Z,30.2583,-88.2131,3.998,7.34,1111122 
DISL,ioos:station:DISL:KATA:1,2017-04-05T07:00:00Z,30.2583,-88.2131,3.984,6.63,1111122 
DISL,ioos:station:DISL:KATA:1,2017-04-05T07:30:00Z,30.2583,-88.2131,3.965,6.05,1111122 
DISL,ioos:station:DISL:KATA:1,2017-04-05T08:00:00Z,30.2583,-88.2131,3.977,6.0,1111122 
DISL,ioos:station:DISL:KATA:1,2017-04-05T08:30:00Z,30.2583,-88.2131,3.99,7.16,1111122 
DISL,ioos:station:DISL:KATA:1,2017-04-05T09:00:00Z,30.2583,-88.2131,4.012,6.72,1111122 
DISL,ioos:station:DISL:KATA:1,2017-04-05T09:30:00Z,30.2583,-88.2131,4.024,7.24,1111122 
DISL,ioos:station:DISL:KATA:1,2017-04-05T10:00:00Z,30.2583,-88.2131,4.015,7.14,1111122 
DISL,ioos:station:DISL:KATA:1,2017-04-05T10:30:00Z,30.2583,-88.2131,4.022,7.35,1111122 
DISL,ioos:station:DISL:KATA:1,2017-04-05T11:00:00Z,30.2583,-88.2131,4.018,7.57,1111122 
DISL,ioos:station:DISL:KATA:1,2017-04-05T11:30:00Z,30.2583,-88.2131,4.019,7.13,1111122 
DISL,ioos:station:DISL:KATA:1,2017-04-05T12:00:00Z,30.2583,-88.2131,4.069,7.4,1111122 
DISL,ioos:station:DISL:KATA:1,2017-04-05T12:30:00Z,30.2583,-88.2131,4.083,7.56,1111122 
DISL,ioos:station:DISL:KATA:1,2017-04-05T13:00:00Z,30.2583,-88.2131,4.124,7.67,1111122 
DISL,ioos:station:DISL:KATA:1,2017-04-05T13:30:00Z,30.2583,-88.2131,4.143,7.84,1111122 
DISL,ioos:station:DISL:KATA:1,2017-04-05T14:00:00Z,30.2583,-88.2131,4.197,7.69,1111122 
DISL,ioos:station:DISL:KATA:1,2017-04-05T14:30:00Z,30.2583,-88.2131,4.245,7.84,1111122 
DISL,ioos:station:DISL:KATA:1,2017-04-05T15:00:00Z,30.2583,-88.2131,4.297,7.83,1111122 
DISL,ioos:station:DISL:KATA:1,2017-04-05T15:30:00Z,30.2583,-88.2131,4.352,7.94,1111122 
DISL,ioos:station:DISL:KATA:1,2017-04-05T16:00:00Z,30.2583,-88.2131,4.378,7.86,1111122 
DISL,ioos:station:DISL:KATA:1,2017-04-05T16:30:00Z,30.2583,-88.2131,4.386,7.85,1111122 
DISL,ioos:station:DISL:KATA:1,2017-04-05T17:00:00Z,30.2583,-88.2131,4.374,7.76,1111122 
DISL,ioos:station:DISL:KATA:1,2017-04-05T17:30:00Z,30.2583,-88.2131,4.363,7.61,1111122 
DISL,ioos:station:DISL:KATA:1,2017-04-05T18:00:00Z,30.2583,-88.2131,4.34,7.85,1111122 
DISL,ioos:station:DISL:KATA:1,2017-04-05T18:30:00Z,30.2583,-88.2131,4.332,7.91,1111122 
DISL,ioos:station:DISL:KATA:1,2017-04-05T19:00:00Z,30.2583,-88.2131,4.334,7.8,1111122 
DISL,ioos:station:DISL:KATA:1,2017-04-05T19:30:00Z,30.2583,-88.2131,4.328,7.7,1111122 
DISL,ioos:station:DISL:KATA:1,2017-04-05T20:00:00Z,30.2583,-88.2131,4.337,7.85,1111122 
DISL,ioos:station:DISL:KATA:1,2017-04-05T20:30:00Z,30.2583,-88.2131,4.336,7.53,1111122 
DISL,ioos:station:DISL:KATA:1,2017-04-05T21:00:00Z,30.2583,-88.2131,4.349,7.3,1111122 
DISL,ioos:station:DISL:KATA:1,2017-04-05T21:30:00Z,30.2583,-88.2131,4.341,7.13,1111122 
DISL,ioos:station:DISL:KATA:1,2017-04-05T22:00:00Z,30.2583,-88.2131,4.357,7.34,1111122 
DISL,ioos:station:DISL:KATA:1,2017-04-05T22:30:00Z,30.2583,-88.2131,4.359,7.26,1111122 
DISL,ioos:station:DISL:KATA:1,2017-04-05T23:00:00Z,30.2583,-88.2131,4.346,6.8,1111122 
DISL,ioos:station:DISL:KATA:1,2017-04-05T23:30:00Z,30.2583,-88.2131,4.34,6.39,1111122 
DISL,ioos:station:DISL:KATA:1,2017-04-06T00:00:00Z,30.2583,-88.2131,4.341,6.35,1111122 
DISL,ioos:station:DISL:KATA:1,2017-04-06T00:30:00Z,30.2583,-88.2131,4.341,7.4,1111122 
DISL,ioos:station:DISL:KATA:1,2017-04-06T01:00:00Z,30.2583,-88.2131,4.372,7.98,1111122 
DISL,ioos:station:DISL:KATA:1,2017-04-06T01:30:00Z,30.2583,-88.2131,4.416,8.61,1111122 
DISL,ioos:station:DISL:KATA:1,2017-04-06T02:00:00Z,30.2583,-88.2131,4.413,8.81,1111122 
DISL,ioos:station:DISL:KATA:1,2017-04-06T02:30:00Z,30.2583,-88.2131,4.466,8.46,1111122 
DISL,ioos:station:DISL:KATA:1,2017-04-06T03:00:00Z,30.2583,-88.2131,4.382,8.52,1111122 
DISL,ioos:station:DISL:KATA:1,2017-04-06T03:30:00Z,30.2583,-88.2131,4.344,8.52,1111122 
DISL,ioos:station:DISL:KATA:1,2017-04-06T04:00:00Z,30.2583,-88.2131,4.364,8.62,1111122 
DISL,ioos:station:DISL:KATA:1,2017-04-06T04:30:00Z,30.2583,-88.2131,4.207,8.52,1111122 
DISL,ioos:station:DISL:KATA:1,2017-04-06T05:00:00Z,30.2583,-88.2131,4.111,8.45,1111122 
DISL,ioos:station:DISL:KATA:1,2017-04-06T05:30:00Z,30.2583,-88.2131,3.996,8.45,1111122 
DISL,ioos:station:DISL:KATA:1,2017-04-06T06:00:00Z,30.2583,-88.2131,3.928,8.46,1111122 
DISL,ioos:station:DISL:KATA:1,2017-04-06T06:30:00Z,30.2583,-88.2131,3.854,8.46,1111122 
DISL,ioos:station:DISL:KATA:1,2017-04-06T07:00:00Z,30.2583,-88.2131,3.767,8.46,1111122 
DISL,ioos:station:DISL:KATA:1,2017-04-06T07:30:00Z,30.2583,-88.2131,3.754,8.46,1111122 
DISL,ioos:station:DISL:KATA:1,2017-04-06T08:00:00Z,30.2583,-88.2131,3.772,8.43,1111122 
DISL,ioos:station:DISL:KATA:1,2017-04-06T08:30:00Z,30.2583,-88.2131,3.734,8.43,1111122 
DISL,ioos:station:DISL:KATA:1,2017-04-06T09:00:00Z,30.2583,-88.2131,3.631,8.46,1111122 
DISL,ioos:station:DISL:KATA:1,2017-04-06T09:30:00Z,30.2583,-88.2131,3.572,8.43,1111122 
DISL,ioos:station:DISL:KATA:1,2017-04-06T10:00:00Z,30.2583,-88.2131,3.62,8.31,1111122 
DISL,ioos:station:DISL:KATA:1,2017-04-06T10:30:00Z,30.2583,-88.2131,3.649,8.34,1111122 
DISL,ioos:station:DISL:KATA:1,2017-04-06T11:00:00Z,30.2583,-88.2131,3.687,8.29,1111122 
DISL,ioos:station:DISL:KATA:1,2017-04-06T11:30:00Z,30.2583,-88.2131,3.677,8.37,1111122 
DISL,ioos:station:DISL:KATA:1,2017-04-06T12:00:00Z,30.2583,-88.2131,3.724,8.41,1111122 
DISL,ioos:station:DISL:KATA:1,2017-04-06T12:30:00Z,30.2583,-88.2131,3.754,8.35,1111122 
DISL,ioos:station:DISL:KATA:1,2017-04-06T13:00:00Z,30.2583,-88.2131,3.79,8.28,1111122 
DISL,ioos:station:DISL:KATA:1,2017-04-06T13:30:00Z,30.2583,-88.2131,3.831,8.15,1111122 
DISL,ioos:station:DISL:KATA:1,2017-04-06T14:00:00Z,30.2583,-88.2131,3.956,8.1,1111122 
DISL,ioos:station:DISL:KATA:1,2017-04-06T14:30:00Z,30.2583,-88.2131,3.899,8.27,1111122 
DISL,ioos:station:DISL:KATA:1,2017-04-06T15:00:00Z,30.2583,-88.2131,3.912,8.4,1111122 
DISL,ioos:station:DISL:KATA:1,2017-04-06T15:30:00Z,30.2583,-88.2131,3.915,8.48,1111122 